| time (UTC) | temp C | wind direction | speed KPH | gust KPH | rain 1hr cm | rain 24hr cm | rain mn cm | humidity % | barometer mb |
| 20260510020537 | 14 | 50 | 8.0 | 17.7 | 0.00 | 0.00 | 0.00 | 71 | 1009.3 |
| 20260510015518 | 14 | 48 | 11.3 | 20.9 | 0.00 | 0.00 | 0.00 | 72 | 1009.4 |
| 20260510014517 | 14 | 50 | 8.0 | 20.9 | 0.00 | 0.00 | 0.00 | 72 | 1009.6 |
| 20260510013518 | 15 | 51 | 8.0 | 17.7 | 0.00 | 0.00 | 0.00 | 71 | 1009.7 |
| 20260510012517 | 15 | 46 | 8.0 | 19.3 | 0.00 | 0.00 | 0.00 | 71 | 1009.7 |
| 20260510011518 | 15 | 51 | 9.7 | 20.9 | 0.00 | 0.00 | 0.00 | 71 | 1009.8 |
| 20260510010537 | 15 | 53 | 8.0 | 19.3 | 0.00 | 0.00 | 0.00 | 71 | 1009.9 |
| 20260510005517 | 15 | 47 | 9.7 | 17.7 | 0.00 | 0.00 | 0.00 | 71 | 1010.1 |
| 20260510004518 | 15 | 48 | 8.0 | 16.1 | 0.00 | 0.00 | 0.00 | 71 | 1010.2 |
| 20260510003518 | 15 | 53 | 8.0 | 20.9 | 0.00 | 0.00 | 0.00 | 70 | 1010.4 |
| 20260510002517 | 15 | 45 | 8.0 | 19.3 | 0.00 | 0.00 | 0.00 | 70 | 1010.5 |
| 20260510001518 | 15 | 58 | 8.0 | 20.9 | 0.00 | 0.00 | 0.00 | 70 | 1010.6 |
| 20260510000537 | 15 | 53 | 8.0 | 17.7 | 0.00 | 0.00 | 0.00 | 69 | 1010.7 |
| 20260509235518 | 15 | 49 | 9.7 | 20.9 | 0.00 | 0.00 | 0.00 | 70 | 1010.8 |
| 20260509234537 | 16 | 50 | 9.7 | 17.7 | 0.00 | 0.00 | 0.00 | 70 | 1010.8 |
| 20260509233517 | 16 | 56 | 11.3 | 20.9 | 0.00 | 0.00 | 0.00 | 70 | 1010.9 |
| 20260509232517 | 16 | 48 | 8.0 | 17.7 | 0.00 | 0.00 | 0.00 | 70 | 1010.9 |
| 20260509231517 | 16 | 50 | 6.4 | 16.1 | 0.00 | 0.00 | 0.00 | 70 | 1011.0 |
| 20260509230517 | 16 | 54 | 8.0 | 17.7 | 0.00 | 0.00 | 0.00 | 70 | 1011.1 |
| 20260509225517 | 16 | 52 | 8.0 | 17.7 | 0.00 | 0.00 | 0.00 | 70 | 1011.1 |
| 20260509224517 | 16 | 52 | 6.4 | 16.1 | 0.00 | 0.00 | 0.00 | 70 | 1011.1 |
| 20260509223537 | 16 | 54 | 6.4 | 17.7 | 0.00 | 0.00 | 0.00 | 70 | 1011.1 |
| 20260509222517 | 16 | 51 | 8.0 | 16.1 | 0.00 | 0.00 | 0.00 | 70 | 1011.2 |
| 20260509221518 | 16 | 54 | 8.0 | 16.1 | 0.00 | 0.00 | 0.00 | 71 | 1011.2 |
| 20260509220517 | 16 | 52 | 6.4 | 14.5 | 0.00 | 0.00 | 0.00 | 71 | 1011.2 |
| 20260509215516 | 16 | 52 | 8.0 | 17.7 | 0.00 | 0.00 | 0.00 | 71 | 1011.2 |
| 20260509214517 | 16 | 54 | 6.4 | 14.5 | 0.00 | 0.00 | 0.00 | 71 | 1011.2 |
| 20260509213517 | 17 | 49 | 6.4 | 12.9 | 0.00 | 0.00 | 0.00 | 71 | 1011.3 |
| 20260509212537 | 17 | 43 | 4.8 | 12.9 | 0.00 | 0.00 | 0.00 | 71 | 1011.4 |
| 20260509211517 | 17 | 50 | 4.8 | 8.0 | 0.00 | 0.00 | 0.00 | 71 | 1011.5 |
| 20260509210517 | 17 | 48 | 4.8 | 8.0 | 0.00 | 0.00 | 0.00 | 70 | 1011.4 |
| 20260509205517 | 17 | 56 | 4.8 | 9.7 | 0.00 | 0.00 | 0.00 | 70 | 1011.4 |
| 20260509204517 | 17 | 54 | 4.8 | 14.5 | 0.00 | 0.00 | 0.00 | 70 | 1011.3 |
| 20260509203517 | 17 | 55 | 4.8 | 14.5 | 0.00 | 0.00 | 0.00 | 70 | 1011.4 |
| 20260509202557 | 17 | 53 | 4.8 | 11.3 | 0.00 | 0.00 | 0.00 | 69 | 1011.4 |
| 20260509201517 | 17 | 51 | 4.8 | 8.0 | 0.00 | 0.00 | 0.00 | 68 | 1011.3 |
| 20260509200517 | 18 | 52 | 4.8 | 9.7 | 0.00 | 0.00 | 0.00 | 67 | 1011.4 |
| 20260509195517 | 18 | 53 | 3.2 | 8.0 | 0.00 | 0.00 | 0.00 | 67 | 1011.3 |
| 20260509194517 | 17 | 51 | 4.8 | 14.5 | 0.00 | 0.00 | 0.00 | 68 | 1011.1 |
| 20260509193517 | 17 | 53 | 4.8 | 11.3 | 0.00 | 0.00 | 0.00 | 69 | 1011.1 |
| 20260509192517 | 18 | 44 | 3.2 | 8.0 | 0.00 | 0.00 | 0.00 | 68 | 1011.0 |
| 20260509191517 | 18 | 48 | 1.6 | 4.8 | 0.00 | 0.00 | 0.00 | 66 | 1011.0 |
| 20260509190517 | 19 | 54 | 1.6 | 4.8 | 0.00 | 0.00 | 0.00 | 64 | 1010.9 |
| 20260509185517 | 19 | 61 | 1.6 | 6.4 | 0.00 | 0.00 | 0.00 | 63 | 1010.9 |
| 20260509184517 | 20 | 64 | 3.2 | 6.4 | 0.00 | 0.00 | 0.00 | 62 | 1010.8 |
| 20260509183517 | 20 | 63 | 3.2 | 6.4 | 0.00 | 0.00 | 0.00 | 61 | 1010.7 |
| 20260509182518 | 20 | 59 | 1.6 | 6.4 | 0.00 | 0.00 | 0.00 | 60 | 1010.7 |
| 20260509181537 | 21 | 63 | 3.2 | 6.4 | 0.00 | 0.00 | 0.00 | 57 | 1010.6 |
| 20260509180537 | 21 | 65 | 3.2 | 11.3 | 0.00 | 0.00 | 0.00 | 56 | 1010.6 |
| 20260509175517 | 21 | 66 | 4.8 | 14.5 | 0.00 | 0.00 | 0.00 | 56 | 1010.5 |
| 20260509174517 | 21 | 65 | 4.8 | 17.7 | 0.00 | 0.00 | 0.00 | 56 | 1010.5 |
| 20260509173517 | 21 | 61 | 8.0 | 14.5 | 0.00 | 0.00 | 0.00 | 56 | 1010.5 |
| 20260509172517 | 21 | 56 | 4.8 | 12.9 | 0.00 | 0.00 | 0.00 | 56 | 1010.6 |
| 20260509171537 | 21 | 53 | 4.8 | 11.3 | 0.00 | 0.00 | 0.00 | 56 | 1010.8 |
| 20260509170517 | 22 | 67 | 6.4 | 14.5 | 0.00 | 0.00 | 0.00 | 53 | 1010.8 |
| 20260509165517 | 22 | 66 | 8.0 | 16.1 | 0.00 | 0.00 | 0.00 | 53 | 1010.9 |
| 20260509164517 | 22 | 66 | 9.7 | 17.7 | 0.00 | 0.00 | 0.00 | 53 | 1010.8 |
| 20260509163517 | 22 | 69 | 3.2 | 12.9 | 0.00 | 0.00 | 0.00 | 52 | 1010.9 |
| 20260509162537 | 22 | 68 | 6.4 | 16.1 | 0.00 | 0.00 | 0.00 | 52 | 1010.9 |
| 20260509161537 | 22 | 75 | 6.4 | 12.9 | 0.00 | 0.00 | 0.00 | 52 | 1010.9 |
| 20260509160517 | 22 | 86 | 4.8 | 14.5 | 0.00 | 0.00 | 0.00 | 52 | 1011.0 |
| 20260509155517 | 23 | 108 | 4.8 | 14.5 | 0.00 | 0.00 | 0.00 | 54 | 1011.1 |
| 20260509154517 | 23 | 61 | 8.0 | 17.7 | 0.00 | 0.00 | 0.00 | 52 | 1011.1 |
| 20260509153517 | 23 | 62 | 4.8 | 11.3 | 0.00 | 0.00 | 0.00 | 51 | 1011.2 |
| 20260509152517 | 23 | 91 | 3.2 | 11.3 | 0.00 | 0.00 | 0.00 | 52 | 1011.5 |
| 20260509151517 | 23 | 78 | 3.2 | 16.1 | 0.00 | 0.00 | 0.00 | 53 | 1011.7 |
| 20260509150537 | 23 | 74 | 8.0 | 19.3 | 0.00 | 0.00 | 0.00 | 52 | 1011.8 |
| 20260509145517 | 23 | 66 | 8.0 | 19.3 | 0.00 | 0.00 | 0.00 | 51 | 1011.8 |
| 20260509144517 | 24 | 67 | 6.4 | 19.3 | 0.00 | 0.00 | 0.00 | 50 | 1011.9 |
| 20260509143517 | 24 | 130 | 6.4 | 16.1 | 0.00 | 0.00 | 0.00 | 52 | 1011.9 |
| 20260509142537 | 24 | 129 | 6.4 | 17.7 | 0.00 | 0.00 | 0.00 | 54 | 1011.8 |
| 20260509141517 | 23 | 135 | 4.8 | 12.9 | 0.00 | 0.00 | 0.00 | 52 | 1011.8 |
| 20260509140517 | 23 | 132 | 6.4 | 17.7 | 0.00 | 0.00 | 0.00 | 54 | 1011.8 |
| 20260509135517 | 23 | 81 | 4.8 | 19.3 | 0.00 | 0.00 | 0.00 | 50 | 1011.7 |
| 20260509134517 | 23 | 142 | 6.4 | 16.1 | 0.00 | 0.00 | 0.00 | 53 | 1011.6 |
| 20260509133517 | 23 | 137 | 6.4 | 17.7 | 0.00 | 0.00 | 0.00 | 50 | 1011.7 |
| 20260509132537 | 23 | 86 | 4.8 | 14.5 | 0.00 | 0.00 | 0.00 | 51 | 1011.8 |
| 20260509131517 | 23 | 87 | 4.8 | 12.9 | 0.00 | 0.00 | 0.00 | 50 | 1011.9 |
| 20260509130517 | 23 | 80 | 3.2 | 14.5 | 0.00 | 0.00 | 0.00 | 50 | 1012.0 |
| 20260509125517 | 23 | 124 | 3.2 | 17.7 | 0.00 | 0.00 | 0.00 | 53 | 1012.0 |
| 20260509124517 | 23 | 84 | 8.0 | 19.3 | 0.00 | 0.00 | 0.00 | 52 | 1012.1 |
| 20260509123537 | 23 | 66 | 8.0 | 19.3 | 0.00 | 0.00 | 0.00 | 52 | 1012.1 |
| 20260509122517 | 22 | 119 | 3.2 | 11.3 | 0.00 | 0.00 | 0.00 | 55 | 1012.2 |
| 20260509121517 | 22 | 102 | 4.8 | 14.5 | 0.00 | 0.00 | 0.00 | 55 | 1012.3 |
| 20260509120517 | 22 | 66 | 4.8 | 14.5 | 0.00 | 0.00 | 0.00 | 56 | 1012.4 |
| 20260509115537 | 22 | 88 | 6.4 | 16.1 | 0.00 | 0.00 | 0.00 | 56 | 1012.6 |
| 20260509114517 | 22 | 103 | 4.8 | 12.9 | 0.00 | 0.00 | 0.00 | 57 | 1012.7 |
| 20260509113537 | 22 | 90 | 6.4 | 16.1 | 0.00 | 0.00 | 0.00 | 58 | 1012.8 |
| 20260509112517 | 22 | 122 | 4.8 | 19.3 | 0.00 | 0.00 | 0.00 | 59 | 1012.8 |
| 20260509111517 | 22 | 129 | 4.8 | 17.7 | 0.00 | 0.00 | 0.00 | 61 | 1013.0 |
| 20260509110517 | 22 | 137 | 4.8 | 17.7 | 0.00 | 0.00 | 0.00 | 59 | 1013.0 |
| 20260509105517 | 21 | 147 | 6.4 | 14.5 | 0.00 | 0.00 | 0.00 | 60 | 1013.1 |
| 20260509104517 | 21 | 123 | 4.8 | 11.3 | 0.00 | 0.00 | 0.00 | 59 | 1013.1 |
| 20260509103517 | 21 | 59 | 4.8 | 11.3 | 0.00 | 0.00 | 0.00 | 61 | 1013.1 |
| 20260509102518 | 21 | 47 | 4.8 | 12.9 | 0.00 | 0.00 | 0.00 | 60 | 1013.2 |
| 20260509101517 | 20 | 68 | 3.2 | 11.3 | 0.00 | 0.00 | 0.00 | 60 | 1013.2 |
| 20260509100537 | 21 | 134 | 4.8 | 9.7 | 0.00 | 0.00 | 0.00 | 60 | 1013.2 |
| 20260509095517 | 20 | 65 | 3.2 | 11.3 | 0.00 | 0.00 | 0.00 | 61 | 1013.1 |
| 20260509094517 | 20 | 67 | 6.4 | 14.5 | 0.00 | 0.00 | 0.00 | 62 | 1013.1 |
| 20260509093517 | 20 | 83 | 3.2 | 11.3 | 0.00 | 0.00 | 0.00 | 63 | 1013.2 |
| 20260509092517 | 20 | 75 | 3.2 | 9.7 | 0.00 | 0.00 | 0.00 | 62 | 1013.2 |
| 20260509091517 | 19 | 85 | 3.2 | 11.3 | 0.00 | 0.00 | 0.00 | 63 | 1013.3 |
| 20260509090517 | 18 | 110 | 3.2 | 12.9 | 0.00 | 0.00 | 0.00 | 65 | 1013.4 |
| 20260509085515 | 18 | 94 | 3.2 | 11.3 | 0.00 | 0.00 | 0.00 | 65 | 1013.4 |
| 20260509084517 | 18 | 57 | 6.4 | 14.5 | 0.00 | 0.00 | 0.00 | 66 | 1013.5 |
| 20260509083515 | 18 | 66 | 3.2 | 9.7 | 0.00 | 0.00 | 0.00 | 67 | 1013.5 |
| 20260509082517 | 17 | 76 | 3.2 | 9.7 | 0.00 | 0.00 | 0.00 | 67 | 1013.6 |
| 20260509081515 | 17 | 54 | 1.6 | 6.4 | 0.00 | 0.00 | 0.00 | 70 | 1013.8 |
| 20260509080517 | 16 | 62 | 1.6 | 9.7 | 0.00 | 0.00 | 0.00 | 70 | 1013.8 |
| 20260509075515 | 16 | 67 | 3.2 | 11.3 | 0.00 | 0.00 | 0.00 | 71 | 1013.9 |
| 20260509074517 | 16 | 71 | 4.8 | 11.3 | 0.00 | 0.00 | 0.00 | 72 | 1014.0 |
| 20260509073515 | 15 | 113 | 1.6 | 11.3 | 0.00 | 0.00 | 0.00 | 74 | 1014.1 |
| 20260509072537 | 15 | 68 | 4.8 | 12.9 | 0.00 | 0.00 | 0.00 | 74 | 1014.0 |
| 20260509071515 | 15 | 59 | 4.8 | 12.9 | 0.00 | 0.00 | 0.00 | 76 | 1014.1 |
| 20260509070517 | 14 | 68 | 1.6 | 8.0 | 0.00 | 0.00 | 0.00 | 77 | 1014.1 |
| 20260509065515 | 13 | 50 | 3.2 | 11.3 | 0.00 | 0.00 | 0.00 | 79 | 1014.1 |
| 20260509064517 | 13 | 68 | 4.8 | 12.9 | 0.00 | 0.00 | 0.00 | 81 | 1014.1 |
| 20260509063535 | 12 | 67 | 3.2 | 14.5 | 0.00 | 0.00 | 0.00 | 84 | 1013.9 |
| 20260509062517 | 11 | 61 | 4.8 | 16.1 | 0.00 | 0.00 | 0.00 | 85 | 1013.8 |
| 20260509061515 | 11 | 57 | 6.4 | 12.9 | 0.00 | 0.00 | 0.00 | 87 | 1013.7 |
| 20260509060517 | 10 | 55 | 4.8 | 14.5 | 0.00 | 0.00 | 0.00 | 89 | 1013.7 |
| 20260509055515 | 10 | 50 | 6.4 | 14.5 | 0.00 | 0.00 | 0.00 | 90 | 1013.8 |
| 20260509054517 | 10 | 45 | 1.6 | 6.4 | 0.00 | 0.00 | 0.00 | 90 | 1013.9 |
| 20260509053515 | 9 | 39 | 1.6 | 4.8 | 0.00 | 0.00 | 0.00 | 90 | 1013.8 |
| 20260509052537 | 9 | 51 | 1.6 | 4.8 | 0.00 | 0.00 | 0.00 | 91 | 1013.6 |
| 20260509051516 | 9 | 52 | 1.6 | 6.4 | 0.00 | 0.00 | 0.00 | 91 | 1013.6 |
| 20260509050517 | 8 | 36 | 1.6 | 8.0 | 0.00 | 0.00 | 0.00 | 91 | 1013.6 |
| 20260509045516 | 8 | 47 | 3.2 | 8.0 | 0.00 | 0.00 | 0.00 | 92 | 1013.6 |
| 20260509044517 | 8 | 50 | 3.2 | 11.3 | 0.00 | 0.00 | 0.00 | 91 | 1013.6 |
| 20260509043536 | 8 | 38 | 1.6 | 4.8 | 0.00 | 0.00 | 0.00 | 91 | 1013.6 |
| 20260509042517 | 8 | 40 | 0.0 | 1.6 | 0.00 | 0.00 | 0.00 | 90 | 1013.5 |
| 20260509041515 | 8 | 0.0 | 0.0 | 0.00 | 0.00 | 0.00 | 90 | 1013.6 | |
| 20260509040517 | 8 | 0.0 | 4.8 | 0.00 | 0.00 | 0.00 | 89 | 1013.7 | |
| 20260509035515 | 9 | 44 | 0.0 | 3.2 | 0.00 | 0.00 | 0.00 | 89 | 1013.6 |
| 20260509034517 | 9 | 80 | 0.0 | 4.8 | 0.00 | 0.00 | 0.00 | 89 | 1013.7 |
| 20260509033517 | 9 | 11 | 0.0 | 1.6 | 0.00 | 0.00 | 0.00 | 89 | 1013.6 |
| 20260509032517 | 9 | 36 | 1.6 | 3.2 | 0.00 | 0.00 | 0.00 | 89 | 1013.8 |
| 20260509031517 | 9 | 0.0 | 0.0 | 0.00 | 0.00 | 0.00 | 89 | 1013.8 | |
| 20260509030517 | 9 | 43 | 4.8 | 9.7 | 0.00 | 0.00 | 0.00 | 89 | 1013.9 |
| 20260509025517 | 9 | 47 | 4.8 | 9.7 | 0.00 | 0.00 | 0.00 | 89 | 1014.0 |
| 20260509024517 | 9 | 49 | 3.2 | 8.0 | 0.00 | 0.00 | 0.00 | 88 | 1014.1 |
| 20260509023517 | 10 | 43 | 3.2 | 6.4 | 0.00 | 0.00 | 0.00 | 88 | 1014.1 |
| 20260509022515 | 10 | 47 | 3.2 | 8.0 | 0.00 | 0.00 | 0.00 | 88 | 1014.0 |
| 20260509021516 | 10 | 41 | 3.2 | 9.7 | 0.00 | 0.00 | 0.00 | 88 | 1014.0 |